LROP Weather Reports


time (UTC)temp
F
wind
direction
speed
knots
gust
knots
rain 1hr
in
rain 24hr
in
rain mn
in
humidity
%
barometer
mb
20260510014802 55 280 0.9 0.0 0.00 0.00 0.00 100 1015.0
20260510013302 55 280 0.9 0.0 0.00 0.00 0.00 100 1015.0
20260510011802 55 290 2.6 0.0 0.00 0.00 0.00 100 1015.0
20260510010302 55 290 2.6 0.0 0.00 0.00 0.00 100 1015.0
20260510004802 57 10 4.3 0.0 0.00 0.00 0.00 94 1015.0
20260510003302 57 10 4.3 0.0 0.00 0.00 0.00 94 1015.0
20260510001802 57 10 5.2 0.0 0.00 0.00 0.00 94 1015.0
20260510000304 57 10 5.2 0.0 0.00 0.00 0.00 94 1015.0
20260509234802 55 340 5.2 0.0 0.00 0.00 0.00 100 1015.0
20260509233316 55 340 5.2 0.0 0.00 0.00 0.00 100 1015.0
20260509231802 57 330 5.2 0.0 0.00 0.00 0.00 94 1015.0
20260509230302 57 330 5.2 0.0 0.00 0.00 0.00 94 1015.0
20260509224802 57 350 4.3 0.0 0.00 0.00 0.00 94 1015.0
20260509223302 57 350 4.3 0.0 0.00 0.00 0.00 94 1015.0
20260509221802 57 10 5.2 0.0 0.00 0.00 0.00 100 1015.0
20260509220302 57 10 5.2 0.0 0.00 0.00 0.00 100 1015.0
20260509214802 57 10 6.1 0.0 0.00 0.00 0.00 100 1015.0
20260509213302 57 10 6.1 0.0 0.00 0.00 0.00 100 1015.0
20260509211802 59 10 5.2 0.0 0.00 0.00 0.00 94 1015.0
20260509210302 59 10 5.2 0.0 0.00 0.00 0.00 94 1015.0
20260509204815 59 20 5.2 0.0 0.00 0.00 0.00 94 1015.0
20260509203302 59 20 5.2 0.0 0.00 0.00 0.00 94 1015.0
20260509201803 59 360 5.2 0.0 0.00 0.00 0.00 94 1015.0
20260509200302 59 360 5.2 0.0 0.00 0.00 0.00 94 1015.0
20260509194802 59 10 6.1 0.0 0.00 0.00 0.00 94 1015.0
20260509193302 59 10 6.1 0.0 0.00 0.00 0.00 94 1015.0
20260509190302 59 30 6.1 0.0 0.00 0.00 0.00 94 1015.0
20260509184802 59 30 6.1 0.0 0.00 0.00 0.00 94 1015.0
20260509183302 59 30 6.1 0.0 0.00 0.00 0.00 94 1015.0
20260509181803 59 40 5.2 0.0 0.00 0.00 0.00 94 1015.0
20260509180302 59 40 5.2 0.0 0.00 0.00 0.00 94 1015.0
20260509174803 59 40 7.0 0.0 0.00 0.00 0.00 94 1014.0
20260509173303 59 40 7.0 0.0 0.00 0.00 0.00 94 1014.0
20260509171803 61 40 7.8 0.0 0.00 0.00 0.00 88 1014.0
20260509170302 61 40 7.8 0.0 0.00 0.00 0.00 88 1014.0
20260509164801 61 40 7.8 0.0 0.00 0.00 0.00 94 1014.0
20260509163302 61 40 7.8 0.0 0.00 0.00 0.00 94 1014.0
20260509161802 61 20 7.0 0.0 0.00 0.00 0.00 88 1014.0
20260509160302 61 20 7.0 0.0 0.00 0.00 0.00 88 1014.0
20260509154802 61 20 6.1 0.0 0.00 0.00 0.00 88 1014.0
20260509153301 61 20 6.1 0.0 0.00 0.00 0.00 88 1014.0
20260509151802 61 20 7.8 0.0 0.00 0.00 0.00 88 1014.0
20260509150302 61 20 7.8 0.0 0.00 0.00 0.00 88 1014.0
20260509144802 59 30 8.7 0.0 0.00 0.00 0.00 100 1014.0
20260509143301 59 30 8.7 0.0 0.00 0.00 0.00 100 1014.0
20260509140302 59 30 8.7 0.0 0.00 0.00 0.00 94 1014.0
20260509134802 59 30 6.1 0.0 0.00 0.00 0.00 94 1014.0
20260509133302 59 30 6.1 0.0 0.00 0.00 0.00 94 1014.0
20260509131802 61 40 8.7 0.0 0.00 0.00 0.00 88 1014.0
20260509130301 61 40 8.7 0.0 0.00 0.00 0.00 88 1014.0
20260509124803 63 40 8.7 0.0 0.00 0.00 0.00 77 1014.0
20260509123302 63 40 8.7 0.0 0.00 0.00 0.00 77 1014.0
20260509121802 63 50 11.3 0.0 0.00 0.00 0.00 77 1014.0
20260509120302 63 50 11.3 0.0 0.00 0.00 0.00 77 1014.0
20260509114802 64 50 12.2 0.0 0.00 0.00 0.00 73 1014.0
20260509113301 64 50 12.2 0.0 0.00 0.00 0.00 73 1014.0
20260509111802 64 40 12.2 0.0 0.00 0.00 0.00 73 1014.0
20260509110302 64 40 12.2 0.0 0.00 0.00 0.00 73 1014.0
20260509104801 63 50 13.0 0.0 0.00 0.00 0.00 77 1014.0
20260509103302 63 50 13.0 0.0 0.00 0.00 0.00 77 1014.0
20260509101802 63 50 13.0 0.0 0.00 0.00 0.00 77 1014.0
20260509100302 63 50 13.0 0.0 0.00 0.00 0.00 77 1014.0
20260509094802 63 50 12.2 0.0 0.00 0.00 0.00 83 1014.0
20260509093301 63 50 12.2 0.0 0.00 0.00 0.00 83 1014.0
20260509091915 63 60 14.8 0.0 0.00 0.00 0.00 83 1015.0
20260509090302 63 60 14.8 0.0 0.00 0.00 0.00 83 1015.0
20260509084801 63 80 13.0 0.0 0.00 0.00 0.00 83 1015.0
20260509083302 63 80 13.0 0.0 0.00 0.00 0.00 83 1015.0
20260509081834 61 50 12.2 0.0 0.00 0.00 0.00 88 1015.0
20260509080302 61 50 12.2 0.0 0.00 0.00 0.00 88 1015.0
20260509074802 61 70 12.2 0.0 0.00 0.00 0.00 88 1014.0
20260509073302 61 70 12.2 0.0 0.00 0.00 0.00 88 1014.0
20260509071802 59 80 8.7 0.0 0.00 0.00 0.00 94 1015.0
20260509070302 59 80 8.7 0.0 0.00 0.00 0.00 94 1015.0
20260509064802 57 90 7.8 0.0 0.00 0.00 0.00 100 1015.0
20260509063302 57 90 7.8 0.0 0.00 0.00 0.00 100 1015.0
20260509061802 57 90 8.7 0.0 0.00 0.00 0.00 94 1014.0
20260509060301 57 90 8.7 0.0 0.00 0.00 0.00 94 1014.0
20260509054802 59 90 7.8 0.0 0.00 0.00 0.00 94 1014.0
20260509053302 59 90 7.8 0.0 0.00 0.00 0.00 94 1014.0
20260509051802 59 80 7.8 0.0 0.00 0.00 0.00 94 1014.0
20260509050301 59 80 7.8 0.0 0.00 0.00 0.00 94 1014.0
20260509044802 57 50 8.7 0.0 0.00 0.00 0.00 94 1014.0
20260509043302 57 50 8.7 0.0 0.00 0.00 0.00 94 1014.0
20260509041802 57 50 6.1 0.0 0.00 0.00 0.00 100 1014.0
20260509040302 57 50 6.1 0.0 0.00 0.00 0.00 100 1014.0
20260509034802 57 90 5.2 0.0 0.00 0.00 0.00 94 1014.0
20260509033301 57 90 5.2 0.0 0.00 0.00 0.00 94 1014.0
20260509031802 57 80 6.1 0.0 0.00 0.00 0.00 94 1014.0
20260509030302 57 80 6.1 0.0 0.00 0.00 0.00 94 1014.0
20260509024801 57 80 5.2 0.0 0.00 0.00 0.00 94 1014.0
20260509023301 57 80 5.2 0.0 0.00 0.00 0.00 94 1014.0
20260509021802 57 90 5.2 0.0 0.00 0.00 0.00 94 1014.0
20260509020302 57 90 5.2 0.0 0.00 0.00 0.00 94 1014.0